| time (UTC) | temp F | wind direction | speed MPH | gust MPH | rain 1hr in | rain 24hr in | rain mn in | humidity % | barometer mb |
| 20260510141754 | 68 | 110 | 1.0 | 2.0 | 0.00 | 0.00 | 0.00 | 94 | 4253.6 |
| 20260510140754 | 67 | 108 | 1.0 | 1.0 | 0.00 | 0.00 | 0.00 | 95 | 4253.3 |
| 20260510135749 | 67 | 240 | 2.0 | 2.0 | 0.00 | 0.00 | 0.00 | 96 | 4253.4 |
| 20260510134749 | 66 | 225 | 2.0 | 2.0 | 0.00 | 0.00 | 0.00 | 95 | 4253.5 |
| 20260510133748 | 66 | 230 | 1.0 | 2.0 | 0.00 | 0.00 | 0.00 | 95 | 4253.4 |
| 20260510132745 | 65 | 168 | 1.0 | 2.0 | 0.00 | 0.00 | 0.00 | 96 | 4253.4 |
| 20260510131746 | 64 | 171 | 1.0 | 2.0 | 0.00 | 0.00 | 0.00 | 97 | 4253.6 |
| 20260510130740 | 64 | 176 | 1.0 | 2.0 | 0.00 | 0.00 | 0.00 | 98 | 4253.4 |
| 20260510125739 | 64 | 163 | 2.0 | 3.0 | 0.00 | 0.00 | 0.00 | 98 | 4253.1 |
| 20260510124738 | 64 | 230 | 1.0 | 2.0 | 0.00 | 0.00 | 0.00 | 97 | 4253.2 |
| 20260510123737 | 64 | 188 | 0.0 | 1.0 | 0.00 | 0.00 | 0.00 | 99 | 4253.1 |
| 20260510122735 | 63 | 215 | 0.0 | 1.0 | 0.00 | 0.00 | 0.00 | 99 | 4253.1 |
| 20260510121734 | 64 | 212 | 0.0 | 0.0 | 0.00 | 0.00 | 0.00 | 99 | 4252.9 |
| 20260510120729 | 63 | 205 | 0.0 | 0.0 | 0.00 | 0.00 | 0.00 | 99 | 4252.6 |
| 20260510115727 | 62 | 205 | 0.0 | 0.0 | 0.00 | 0.00 | 0.00 | 99 | 4252.7 |
| 20260510114726 | 59 | 212 | 0.0 | 0.0 | 0.00 | 0.00 | 0.00 | 99 | 4252.3 |
| 20260510113725 | 60 | 217 | 0.0 | 0.0 | 0.00 | 0.00 | 0.00 | 99 | 4252.3 |
| 20260510112724 | 59 | 216 | 1.0 | 1.0 | 0.00 | 0.00 | 0.00 | 99 | 4252.1 |
| 20260510111722 | 59 | 211 | 0.0 | 1.0 | 0.00 | 0.00 | 0.00 | 99 | 4251.7 |
| 20260510110719 | 59 | 214 | 1.0 | 1.0 | 0.00 | 0.00 | 0.00 | 99 | 4251.7 |
| 20260510105717 | 60 | 212 | 1.0 | 1.0 | 0.00 | 0.00 | 0.00 | 99 | 4251.5 |
| 20260510104714 | 60 | 214 | 1.0 | 1.0 | 0.00 | 0.00 | 0.00 | 99 | 4251.4 |
| 20260510103714 | 60 | 215 | 1.0 | 1.0 | 0.00 | 0.00 | 0.00 | 99 | 4251.2 |
| 20260510102711 | 60 | 211 | 1.0 | 1.0 | 0.00 | 0.00 | 0.00 | 99 | 4251.3 |
| 20260510101710 | 60 | 214 | 0.0 | 0.0 | 0.00 | 0.00 | 0.00 | 99 | 4251.0 |
| 20260510100710 | 60 | 220 | 1.0 | 1.0 | 0.00 | 0.00 | 0.00 | 99 | 4250.8 |
| 20260510095709 | 60 | 217 | 0.0 | 1.0 | 0.00 | 0.00 | 0.00 | 99 | 4250.7 |
| 20260510094709 | 59 | 220 | 1.0 | 1.0 | 0.00 | 0.00 | 0.00 | 99 | 4250.8 |
| 20260510093707 | 59 | 217 | 1.0 | 1.0 | 0.00 | 0.00 | 0.00 | 99 | 4250.5 |
| 20260510092706 | 61 | 208 | 0.0 | 0.0 | 0.00 | 0.00 | 0.00 | 99 | 4250.4 |
| 20260510091704 | 61 | 216 | 0.0 | 0.0 | 0.00 | 0.00 | 0.00 | 99 | 4250.3 |
| 20260510090703 | 60 | 216 | 0.0 | 0.0 | 0.00 | 0.00 | 0.00 | 99 | 4250.5 |
| 20260510085700 | 62 | 215 | 0.0 | 0.0 | 0.00 | 0.00 | 0.00 | 99 | 4250.4 |
| 20260510084658 | 62 | 216 | 0.0 | 0.0 | 0.00 | 0.00 | 0.00 | 99 | 4250.4 |
| 20260510083657 | 61 | 216 | 0.0 | 0.0 | 0.00 | 0.00 | 0.00 | 99 | 4250.5 |
| 20260510082656 | 61 | 216 | 0.0 | 1.0 | 0.00 | 0.00 | 0.00 | 99 | 4250.3 |
| 20260510081653 | 62 | 214 | 0.0 | 1.0 | 0.00 | 0.00 | 0.00 | 99 | 4250.3 |
| 20260510080648 | 62 | 213 | 1.0 | 1.0 | 0.00 | 0.00 | 0.00 | 99 | 4250.1 |
| 20260510075648 | 61 | 213 | 0.0 | 0.0 | 0.00 | 0.00 | 0.00 | 99 | 4250.0 |
| 20260510074648 | 62 | 214 | 0.0 | 0.0 | 0.00 | 0.00 | 0.00 | 99 | 4249.9 |
| 20260510073647 | 62 | 215 | 0.0 | 0.0 | 0.00 | 0.00 | 0.00 | 99 | 4249.9 |
| 20260510072645 | 62 | 214 | 0.0 | 0.0 | 0.00 | 0.00 | 0.00 | 99 | 4249.8 |
| 20260510071643 | 62 | 215 | 0.0 | 0.0 | 0.00 | 0.00 | 0.00 | 99 | 4249.8 |
| 20260510070639 | 62 | 217 | 0.0 | 0.0 | 0.00 | 0.00 | 0.00 | 99 | 4249.8 |
| 20260510065637 | 63 | 217 | 0.0 | 1.0 | 0.00 | 0.00 | 0.00 | 99 | 4250.1 |
| 20260510064636 | 63 | 216 | 0.0 | 0.0 | 0.00 | 0.00 | 0.00 | 99 | 4250.1 |
| 20260510063635 | 63 | 218 | 1.0 | 1.0 | 0.00 | 0.00 | 0.00 | 99 | 4250.1 |
| 20260510062634 | 63 | 218 | 0.0 | 0.0 | 0.00 | 0.00 | 0.00 | 99 | 4250.0 |
| 20260510061631 | 63 | 220 | 0.0 | 0.0 | 0.00 | 0.00 | 0.00 | 99 | 4249.9 |
| 20260510060631 | 63 | 221 | 0.0 | 0.0 | 0.00 | 0.00 | 0.00 | 99 | 4249.9 |
| 20260510055630 | 64 | 221 | 0.0 | 0.0 | 0.00 | 0.00 | 0.00 | 99 | 4249.9 |
| 20260510054629 | 64 | 221 | 0.0 | 0.0 | 0.00 | 0.00 | 0.00 | 99 | 4249.9 |
| 20260510053624 | 64 | 223 | 0.0 | 0.0 | 0.00 | 0.00 | 0.00 | 98 | 4249.9 |
| 20260510052623 | 65 | 221 | 0.0 | 0.0 | 0.00 | 0.00 | 0.00 | 98 | 4249.8 |
| 20260510051620 | 65 | 217 | 0.0 | 0.0 | 0.00 | 0.00 | 0.00 | 97 | 4249.8 |
| 20260510050615 | 65 | 224 | 1.0 | 1.0 | 0.00 | 0.00 | 0.00 | 97 | 4249.8 |
| 20260510045614 | 66 | 225 | 1.0 | 1.0 | 0.00 | 0.00 | 0.00 | 97 | 4249.9 |
| 20260510044613 | 66 | 242 | 3.0 | 3.0 | 0.00 | 0.00 | 0.00 | 97 | 4249.9 |
| 20260510043612 | 66 | 224 | 1.0 | 1.0 | 0.00 | 0.00 | 0.00 | 97 | 4249.9 |
| 20260510042607 | 66 | 223 | 0.0 | 0.0 | 0.00 | 0.00 | 0.00 | 96 | 4249.9 |
| 20260510041605 | 66 | 216 | 1.0 | 1.0 | 0.00 | 0.00 | 0.00 | 96 | 4250.1 |
| 20260510040605 | 66 | 211 | 1.0 | 1.0 | 0.00 | 0.00 | 0.00 | 95 | 4250.1 |
| 20260510035603 | 66 | 232 | 2.0 | 5.0 | 0.00 | 0.00 | 0.00 | 95 | 4250.2 |
| 20260510034601 | 67 | 232 | 1.0 | 2.0 | 0.00 | 0.00 | 0.00 | 94 | 4250.2 |
| 20260510033600 | 67 | 237 | 3.0 | 3.0 | 0.00 | 0.00 | 0.00 | 93 | 4250.2 |
| 20260510032559 | 67 | 228 | 2.0 | 3.0 | 0.00 | 0.00 | 0.00 | 93 | 4250.0 |
| 20260510031555 | 67 | 214 | 2.0 | 3.0 | 0.00 | 0.00 | 0.00 | 94 | 4250.2 |
| 20260510030553 | 66 | 222 | 0.0 | 0.0 | 0.00 | 0.00 | 0.00 | 94 | 4249.9 |
| 20260510025554 | 67 | 227 | 0.0 | 0.0 | 0.00 | 0.00 | 0.00 | 93 | 4250.1 |
| 20260510024554 | 67 | 226 | 0.0 | 0.0 | 0.00 | 0.00 | 0.00 | 92 | 4249.7 |
| 20260510023552 | 67 | 228 | 2.0 | 2.0 | 0.00 | 0.00 | 0.00 | 92 | 4249.7 |
| 20260510022549 | 67 | 228 | 1.0 | 2.0 | 0.00 | 0.00 | 0.00 | 92 | 4249.3 |
| 20260510021546 | 68 | 226 | 0.0 | 0.0 | 0.00 | 0.00 | 0.00 | 92 | 4249.2 |
| 20260510020543 | 68 | 225 | 0.0 | 1.0 | 0.00 | 0.00 | 0.00 | 91 | 4248.9 |
| 20260510015541 | 68 | 223 | 1.0 | 1.0 | 0.00 | 0.00 | 0.00 | 91 | 4248.9 |
| 20260510014540 | 68 | 226 | 0.0 | 0.0 | 0.00 | 0.00 | 0.00 | 91 | 4248.7 |
| 20260510013537 | 69 | 229 | 0.0 | 0.0 | 0.00 | 0.00 | 0.00 | 89 | 4248.4 |
| 20260510012533 | 69 | 229 | 0.0 | 0.0 | 0.00 | 0.00 | 0.00 | 88 | 4248.0 |
| 20260510011530 | 70 | 265 | 0.0 | 0.0 | 0.00 | 0.00 | 0.00 | 88 | 4247.9 |
| 20260510010528 | 71 | 303 | 0.0 | 0.0 | 0.00 | 0.00 | 0.00 | 86 | 4247.9 |
| 20260510005527 | 71 | 254 | 1.0 | 1.0 | 0.00 | 0.00 | 0.00 | 85 | 4247.6 |
| 20260510004522 | 72 | 254 | 1.0 | 1.0 | 0.00 | 0.00 | 0.00 | 84 | 4247.6 |
| 20260510003522 | 73 | 257 | 0.0 | 1.0 | 0.00 | 0.00 | 0.00 | 81 | 4247.3 |
| 20260510002519 | 74 | 260 | 1.0 | 1.0 | 0.00 | 0.00 | 0.00 | 79 | 4247.5 |
| 20260510001514 | 74 | 241 | 3.0 | 3.0 | 0.00 | 0.00 | 0.00 | 78 | 4247.4 |
| 20260510000512 | 75 | 242 | 1.0 | 1.0 | 0.00 | 0.00 | 0.00 | 78 | 4247.2 |
| 20260509235512 | 76 | 267 | 1.0 | 1.0 | 0.00 | 0.00 | 0.00 | 75 | 4247.1 |
| 20260509234511 | 77 | 290 | 0.0 | 1.0 | 0.00 | 0.00 | 0.00 | 74 | 4247.1 |
| 20260509233506 | 77 | 271 | 2.0 | 2.0 | 0.00 | 0.00 | 0.00 | 72 | 4247.0 |
| 20260509232506 | 77 | 252 | 1.0 | 1.0 | 0.00 | 0.00 | 0.00 | 68 | 4247.2 |
| 20260509231504 | 77 | 258 | 1.0 | 1.0 | 0.00 | 0.00 | 0.00 | 67 | 4247.1 |
| 20260509230505 | 78 | 311 | 1.0 | 1.0 | 0.00 | 0.00 | 0.00 | 66 | 4247.0 |
| 20260509225503 | 78 | 297 | 0.0 | 0.0 | 0.00 | 0.00 | 0.00 | 64 | 4247.0 |
| 20260509224500 | 78 | 297 | 0.0 | 0.0 | 0.00 | 0.00 | 0.00 | 65 | 4247.0 |
| 20260509223500 | 78 | 238 | 2.0 | 2.0 | 0.00 | 0.00 | 0.00 | 62 | 4247.0 |
| 20260509222458 | 79 | 234 | 1.0 | 2.0 | 0.00 | 0.00 | 0.00 | 63 | 4246.7 |
| 20260509221456 | 79 | 313 | 0.0 | 1.0 | 0.00 | 0.00 | 0.00 | 64 | 4246.8 |
| 20260509220455 | 79 | 228 | 4.0 | 5.0 | 0.00 | 0.00 | 0.00 | 60 | 4247.0 |
| 20260509215452 | 79 | 281 | 1.0 | 1.0 | 0.00 | 0.00 | 0.00 | 61 | 4246.7 |
| 20260509214447 | 79 | 259 | 1.0 | 1.0 | 0.00 | 0.00 | 0.00 | 62 | 4246.8 |
| 20260509213445 | 79 | 256 | 1.0 | 2.0 | 0.00 | 0.00 | 0.00 | 59 | 4246.7 |
| 20260509212445 | 79 | 17 | 1.0 | 1.0 | 0.00 | 0.00 | 0.00 | 62 | 4246.8 |
| 20260509211442 | 80 | 240 | 1.0 | 1.0 | 0.00 | 0.00 | 0.00 | 63 | 4246.7 |
| 20260509210442 | 80 | 336 | 1.0 | 1.0 | 0.00 | 0.00 | 0.00 | 62 | 4247.0 |
| 20260509205439 | 79 | 256 | 2.0 | 2.0 | 0.00 | 0.00 | 0.00 | 60 | 4246.8 |
| 20260509204437 | 80 | 299 | 3.0 | 5.0 | 0.00 | 0.00 | 0.00 | 60 | 4247.0 |
| 20260509203435 | 79 | 243 | 3.0 | 3.0 | 0.00 | 0.00 | 0.00 | 57 | 4247.0 |
| 20260509202435 | 80 | 297 | 1.0 | 1.0 | 0.00 | 0.00 | 0.00 | 59 | 4247.1 |
| 20260509201431 | 79 | 315 | 2.0 | 2.0 | 0.00 | 0.00 | 0.00 | 60 | 4247.1 |
| 20260509200428 | 80 | 290 | 1.0 | 1.0 | 0.00 | 0.00 | 0.00 | 60 | 4247.2 |
| 20260509195427 | 79 | 6 | 1.0 | 1.0 | 0.00 | 0.00 | 0.00 | 64 | 4247.2 |
| 20260509194422 | 77 | 359 | 1.0 | 1.0 | 0.00 | 0.00 | 0.00 | 67 | 4247.3 |
| 20260509193419 | 80 | 69 | 2.0 | 3.0 | 0.00 | 0.00 | 0.00 | 60 | 4247.3 |
| 20260509192417 | 77 | 4 | 4.0 | 5.0 | 0.00 | 0.00 | 0.00 | 62 | 4247.1 |
| 20260509191414 | 78 | 44 | 1.0 | 1.0 | 0.00 | 0.00 | 0.00 | 69 | 4247.2 |
| 20260509190413 | 78 | 341 | 1.0 | 1.0 | 0.00 | 0.00 | 0.00 | 68 | 4247.5 |
| 20260509185408 | 77 | 10 | 1.0 | 2.0 | 0.00 | 0.00 | 0.00 | 66 | 4247.7 |
| 20260509184407 | 77 | 336 | 3.0 | 3.0 | 0.00 | 0.00 | 0.00 | 65 | 4247.6 |
| 20260509183405 | 78 | 29 | 1.0 | 1.0 | 0.00 | 0.00 | 0.00 | 65 | 4247.8 |
| 20260509182404 | 78 | 356 | 3.0 | 3.0 | 0.00 | 0.00 | 0.00 | 65 | 4247.8 |
| 20260509181359 | 79 | 280 | 1.0 | 1.0 | 0.00 | 0.00 | 0.00 | 64 | 4247.8 |
| 20260509180357 | 78 | 62 | 2.0 | 2.0 | 0.00 | 0.00 | 0.00 | 68 | 4247.9 |
| 20260509175357 | 77 | 308 | 2.0 | 2.0 | 0.00 | 0.00 | 0.00 | 69 | 4248.2 |
| 20260509174355 | 77 | 160 | 3.0 | 3.0 | 0.00 | 0.00 | 0.00 | 71 | 4247.9 |
| 20260509173351 | 77 | 229 | 3.0 | 3.0 | 0.00 | 0.00 | 0.00 | 70 | 4248.0 |
| 20260509172351 | 75 | 355 | 4.0 | 5.0 | 0.00 | 0.00 | 0.00 | 73 | 4247.9 |
| 20260509171348 | 77 | 274 | 1.0 | 2.0 | 0.00 | 0.00 | 0.00 | 70 | 4247.8 |
| 20260509170347 | 75 | 9 | 1.0 | 1.0 | 0.00 | 0.00 | 0.00 | 74 | 4247.9 |
| 20260509165342 | 76 | 2 | 2.0 | 2.0 | 0.00 | 0.00 | 0.00 | 76 | 4247.9 |
| 20260509164340 | 77 | 263 | 4.0 | 5.0 | 0.00 | 0.00 | 0.00 | 71 | 4248.2 |
| 20260509163339 | 75 | 295 | 1.0 | 1.0 | 0.00 | 0.00 | 0.00 | 72 | 4248.4 |
| 20260509162337 | 75 | 347 | 4.0 | 5.0 | 0.00 | 0.00 | 0.00 | 76 | 4248.3 |
| 20260509161336 | 75 | 41 | 1.0 | 1.0 | 0.00 | 0.00 | 0.00 | 76 | 4248.3 |
| 20260509160334 | 73 | 16 | 4.0 | 6.0 | 0.00 | 0.00 | 0.00 | 79 | 4248.2 |
| 20260509155331 | 73 | 240 | 1.0 | 2.0 | 0.00 | 0.00 | 0.00 | 78 | 4248.3 |
| 20260509154330 | 73 | 321 | 1.0 | 1.0 | 0.00 | 0.00 | 0.00 | 78 | 4248.2 |
| 20260509153330 | 73 | 343 | 1.0 | 1.0 | 0.00 | 0.00 | 0.00 | 81 | 4248.0 |
| 20260509152328 | 72 | 234 | 1.0 | 2.0 | 0.00 | 0.00 | 0.00 | 81 | 4247.9 |
| 20260509151328 | 70 | 153 | 0.0 | 0.0 | 0.00 | 0.00 | 0.00 | 85 | 4247.9 |
| 20260509150324 | 69 | 253 | 4.0 | 5.0 | 0.00 | 0.00 | 0.00 | 85 | 4247.8 |
| 20260509145321 | 68 | 236 | 3.0 | 3.0 | 0.00 | 0.00 | 0.00 | 87 | 4248.0 |
| 20260509144320 | 66 | 312 | 1.0 | 1.0 | 0.00 | 0.00 | 0.00 | 91 | 4248.0 |
| 20260509143315 | 67 | 265 | 1.0 | 1.0 | 0.00 | 0.00 | 0.00 | 91 | 4248.3 |